串田-村松彗星

147P/Kushida-Muramatsu (2001)

English version
Home page
Updated on March 11, 2009

---------------------------------------------------------------------

・ プロフィール

符号 146P/2000 S2
検出日 2000年10月3日
検出光度 20.2等
検出者 T. Oribe (Saji Observatory)

・ 軌道要素

Epoch 2001 May 11.0 TT = JDT 2452040.5  
T 2001 Apr. 29.50749 TT                                 Muraoka 
q   2.7523693            (2000.0)            P               Q
n   0.13256266     Peri.  347.49994     +0.15188424     -0.98753813
a   3.8093884      Node    93.75323     +0.91035762     +0.12352566
e   0.2774774      Incl.    2.36786     +0.38494179     +0.09751851
P   7.44
From 49 observations 1994-2000, mean residual 0".75.

・ 星図

・ 光度変化

        H = 15.5  G = 0.15

---------------------------------------------------------------------

軌道要素は村岡健治氏の計算によるものです。
星図は StellaNavigator Ver.2.0 for Windows (アストロアーツ 編著 / アスキー出版局刊) で作成したものです。
光度グラフはComet for Windowsで作成したものです。

---------------------------------------------------------------------

Copyright(C) Seiichi Yoshida (comet@aerith.net). All rights reserved.